User: anonymous   Login
Location: Christchurch
(43.5330°S, 172.6330°E)
Time: 16:36:51
(UTC+13:00)
Language:

H-2A R/B - Orbit

View from above orbital plane
View from above orbital plane
View from above satellite
View from above satellite

Ground track
Ground track

The orbit data is extracted from the following two-line orbital elements,

1 26899U 01038B   19289.95400575 -.00000084  00000-0  53425-4 0  9996
2 26899  28.3062  76.4857 7096181  36.8653 355.2731  2.50106246157732
Epoch (UTC): 16 October 2019 22:53:46
Eccentricity: 0.7096181
inclination: 28.3062°
perigee height: 279 km
apogee height: 32815 km
right ascension of ascending node: 76.4857°
argument of perigee: 36.8653°
revolutions per day: 2.50106246
mean anomaly at epoch: 355.2731°
orbit number at epoch: 15773

The dashed part of the orbit path shows where the satellite is in the earth's shadow,  

DLR